| time (UTC) | temp F | wind direction | speed MPH | gust MPH | rain 1hr in | rain 24hr in | rain mn in | humidity % | barometer mb |
| 20260506122827 | 52 | 16 | 11.0 | 21.0 | 0.00 | 0.00 | 0.00 | 73 | 1012.6 |
| 20260506120827 | 52 | 18 | 12.0 | 22.0 | 0.00 | 0.00 | 0.00 | 73 | 1012.6 |
| 20260506115827 | 53 | 353 | 12.0 | 22.0 | 0.00 | 0.00 | 0.00 | 58 | 1012.2 |
| 20260506111827 | 52 | 358 | 11.0 | 22.0 | 0.00 | 0.00 | 0.00 | 63 | 1012.5 |
| 20260506110828 | 53 | 0 | 11.0 | 22.0 | 0.00 | 0.00 | 0.00 | 63 | 1012.5 |
| 20260506103827 | 52 | 357 | 9.0 | 20.0 | 0.00 | 0.00 | 0.00 | 64 | 1012.2 |
| 20260506093827 | 52 | 358 | 10.0 | 20.0 | 0.00 | 0.00 | 0.00 | 63 | 1012.4 |
| 20260506080827 | 49 | 350 | 11.0 | 21.0 | 0.00 | 0.00 | 0.00 | 67 | 1012.6 |
| 20260506061827 | 48 | 354 | 10.0 | 18.0 | 0.00 | 0.00 | 0.00 | 73 | 1012.3 |
| 20260506044827 | 48 | 0 | 10.0 | 18.0 | 0.00 | 0.00 | 0.00 | 76 | 1011.9 |
| 20260506043827 | 48 | 0 | 10.0 | 18.0 | 0.00 | 0.00 | 0.00 | 76 | 1011.9 |
| 20260506042827 | 48 | 0 | 9.0 | 18.0 | 0.00 | 0.00 | 0.00 | 76 | 1011.9 |
| 20260506041827 | 48 | 0 | 9.0 | 18.0 | 0.00 | 0.00 | 0.00 | 76 | 1011.9 |
| 20260506034827 | 48 | 0 | 9.0 | 19.0 | 0.00 | 0.00 | 0.00 | 77 | 1012.2 |
| 20260506030827 | 49 | 0 | 10.0 | 19.0 | 0.00 | 0.00 | 0.00 | 77 | 1012.2 |
| 20260506024827 | 49 | 2 | 10.0 | 18.0 | 0.00 | 0.00 | 0.00 | 76 | 1012.4 |
| 20260506011827 | 50 | 14 | 10.0 | 20.0 | 0.00 | 0.00 | 0.00 | 74 | 1012.6 |
| 20260505225828 | 52 | 52 | 10.0 | 20.0 | 0.00 | 0.00 | 0.00 | 76 | 1012.6 |
| 20260505224827 | 52 | 52 | 10.0 | 20.0 | 0.00 | 0.00 | 0.00 | 76 | 1012.6 |
| 20260505222827 | 52 | 52 | 10.0 | 20.0 | 0.00 | 0.00 | 0.00 | 76 | 1012.6 |
| 20260505213826 | 52 | 42 | 9.0 | 16.0 | 0.00 | 0.00 | 0.00 | 78 | 1012.6 |
| 20260505212827 | 52 | 42 | 8.0 | 14.0 | 0.00 | 0.00 | 0.00 | 78 | 1012.6 |
| 20260505202827 | 52 | 56 | 8.0 | 15.0 | 0.00 | 0.00 | 0.00 | 75 | 1012.5 |
| 20260505183826 | 52 | 46 | 8.0 | 17.0 | 0.00 | 0.00 | 0.00 | 76 | 1011.7 |
| 20260505180828 | 53 | 46 | 9.0 | 18.0 | 0.00 | 0.00 | 0.00 | 77 | 1011.4 |
| 20260505175827 | 53 | 42 | 9.0 | 15.0 | 0.00 | 0.00 | 0.00 | 73 | 1011.4 |
| 20260505174827 | 53 | 42 | 9.0 | 15.0 | 0.00 | 0.00 | 0.00 | 73 | 1011.5 |
| 20260505170829 | 54 | 42 | 8.0 | 15.0 | 0.00 | 0.00 | 0.00 | 73 | 1011.5 |
| 20260505151830 | 56 | 60 | 10.0 | 19.0 | 0.00 | 0.00 | 0.00 | 64 | 1011.8 |
| 20260505150827 | 56 | 52 | 10.0 | 20.0 | 0.00 | 0.00 | 0.00 | 65 | 1011.6 |